Location: Unspecified
(0.0000°N, 0.0000°E)
Time: 18:25:21
(UTC+02:00)

NOSS 3-3 (A) - Visible Passes

Search period start: 16 April 2014 00:00
Search period end: 26 April 2014 00:00
Orbit: 990 x 1223 km, 63.4° (Epoch: 24 March)

Date Brightness Start Highest point End Pass type
(mag) Time Alt. Az. Time Alt. Az. Time Alt. Az.
16 Apr 4.7 05:46:32 45° N 05:46:32 45° N 05:50:53 10° NNE visible
17 Apr 6.0 05:04:09 21° NE 05:04:09 21° NE 05:06:12 10° NE visible
17 Apr 5.8 06:51:39 12° NW 06:51:39 12° NW 06:53:08 10° NW visible
18 Apr 5.7 06:09:08 18° NNW 06:09:08 18° NNW 06:11:11 10° NNW visible
19 Apr 6.1 05:26:31 16° N 05:26:31 16° N 05:27:39 10° N visible
